Regional Weather Roundup
Issued by NWS

Home | Current Version | Previous Version | Text Only | Print | Product List | Glossary Off
Versions: 1 2 3 4 5 6 7 8 9 10 11 12 13 14 15 16 17 18 19 20 21 22 23 24 25 26 27 28 29 30 31 32 33 34 35 36 37 38 39 40 41 42 43 44 45 46 47 48 49 50

000
ASUS43 KFSD 091702
RWRSD

WEATHER ROUNDUP FOR SOUTH DAKOTA
NATIONAL WEATHER SERVICE SIOUX FALLS SD
1100 AM CST TUE FEB 09 2016

NOTE: "FAIR" INDICATES FEW OR NO CLOUDS BELOW 12,000 FEET WITH NO
SIGNIFICANT WEATHER AND/OR OBSTRUCTIONS TO VISIBILITY.


SDZ001>005-009-010-012>017-091800-
NORTHWEST AND NORTH CENTRAL SOUTH DAKOTA

CITY           SKY/WX    TMP DP  RH WIND       PRES   REMARKS
BUFFALO          N/A     42  29  59 NW23      30.13S
FAITH            N/A     26  17  68 S15       30.21F WCI  14
MOBRIDGE       CLOUDY    28  11  48 SW10      30.23S WCI  19
$$

SDZ012>016-024>037-041>051-057-063-072>074-091800-
SOUTHWEST AND SOUTH CENTRAL SOUTH DAKOTA

CITY           SKY/WX    TMP DP  RH WIND       PRES   REMARKS
RAPID CTY ARPT CLOUDY    44  29  55 NE10      30.20R
PIERRE         CLOUDY    27   8  44 SW7       30.29S WCI  19
CUSTER         PTSUNNY   42  23  46 NW13G26   30.19R
ELLSWORTH AFB  CLOUDY    45  30  55 N20       30.19R
PHILIP         CLOUDY    28  20  71 SE12      30.27R WCI  18
PINE RIDGE     CLOUDY    37  26  64 W7        30.22S
WINNER         CLOUDY    26   6  42 CALM      30.30S
$$

SDZ004>011-016>023-039-040-091800-
NORTHEAST SOUTH DAKOTA

CITY           SKY/WX    TMP DP  RH WIND       PRES   REMARKS
ABERDEEN       PTSUNNY   26  10  50 NW9       30.29S WCI  17
WATERTOWN      CLOUDY    15   4  61 NW10      30.22S WCI   2
SISSETON         N/A     16   7  67 N16       30.26R WCI   1
$$

SDZ017-020-022-023-036>040-048>070-091800-
SOUTHEAST SOUTH DAKOTA

CITY           SKY/WX    TMP DP  RH WIND       PRES   REMARKS
SIOUX FALLS    CLOUDY    15   4  61 N13       30.24S WCI   1
HURON          SUNNY     20  10  65 N6        30.30S WCI  12
MITCHELL       PTSUNNY   22  13  68 NW10      30.32R WCI  11
YANKTON        SUNNY     19   7  58 NW14      30.30S WCI   6
$$

ABBREVIATIONS USED IN REMARKS
   TC - TEMPERATURE IN CELSIUS
  WCI - WIND CHILL INDEX
   HX - HEAT INDEX
  VSB - VISIBILITY




USA.gov is the U.S. government's official web portal to all federal, state and local government web resources and services.